THY4157 LTCM-LTFJ

Flight info

Callsign THY4157
Flight time 0h 53m
Altitude 32000
Route SUNUM UW90 INB UT310 GUMRU DCT NAMAN
Aircraft B738/M-SDE2E3FGHIRWXY/LB1

Departure

Time 2026-04-24 13:49
Airport Sinop Airport (LTCM)

Arrival

Time 2026-04-24 14:42
Airport Istanbul Sabiha Gökçen International Airport (LTFJ)
Time Latitude Longitude Altitude Speed Heading
2026-04-24 13:40 42.01918 35.07845 41 ft 0 kts 142°
2026-04-24 13:41 42.01929 35.07833 35 ft 2 kts 143°
2026-04-24 13:41 42.01943 35.07820 39 ft 2 kts 133°
2026-04-24 13:41 42.01948 35.07800 37 ft 2 kts 71°
2026-04-24 13:42 42.01942 35.07784 38 ft 1 kts 54°
2026-04-24 13:42 42.01941 35.07781 38 ft 0 kts 53°
2026-04-24 13:43 42.01941 35.07782 38 ft 0 kts 53°
2026-04-24 13:45 42.01952 35.07797 36 ft 4 kts 37°
2026-04-24 13:45 42.01992 35.07798 39 ft 8 kts 338°
2026-04-24 13:46 42.02050 35.07746 40 ft 11 kts 322°
2026-04-24 13:46 42.02115 35.07710 41 ft 10 kts 20°
2026-04-24 13:46 42.02176 35.07801 41 ft 17 kts 53°
2026-04-24 13:46 42.02249 35.07939 40 ft 19 kts 54°
2026-04-24 13:47 42.02332 35.08055 40 ft 17 kts 20°
2026-04-24 13:47 42.02384 35.08116 39 ft 6 kts 106°
2026-04-24 13:47 42.02357 35.08124 39 ft 4 kts 212°
2026-04-24 13:47 42.02340 35.08100 37 ft 4 kts 231°
2026-04-24 13:48 42.02336 35.08092 38 ft 0 kts 234°
2026-04-24 13:48 42.02329 35.08080 39 ft 8 kts 234°
2026-04-24 13:48 42.02125 35.07709 41 ft 92 kts 233°
2026-04-24 13:49 42.01595 35.06729 103 ft 159 kts 236°
2026-04-24 13:49 42.00888 35.05544 1036 ft 161 kts 233°
2026-04-24 13:49 42.00169 35.04389 2059 ft 169 kts 236°
2026-04-24 13:49 41.99439 35.02994 2507 ft 197 kts 234°
2026-04-24 13:50 41.98627 35.01445 2872 ft 206 kts 252°
2026-04-24 13:50 41.98584 34.99576 3596 ft 203 kts 286°
2026-04-24 13:50 41.99332 34.97904 4066 ft 223 kts 305°
2026-04-24 13:50 42.00229 34.96083 4465 ft 240 kts 297°
2026-04-24 13:51 42.00926 34.94023 5214 ft 244 kts 288°
2026-04-24 13:51 42.01341 34.91806 6036 ft 246 kts 279°
2026-04-24 13:51 42.01452 34.89500 6818 ft 249 kts 269°
2026-04-24 13:51 42.01346 34.87165 7609 ft 252 kts 266°
2026-04-24 13:52 42.01193 34.84798 8370 ft 256 kts 265°
2026-04-24 13:52 42.01059 34.82406 9198 ft 258 kts 265°
2026-04-24 13:52 42.00932 34.79975 10001 ft 263 kts 265°
2026-04-24 13:52 42.00805 34.77468 10455 ft 280 kts 265°
2026-04-24 13:53 42.00667 34.74744 10645 ft 304 kts 265°
2026-04-24 13:53 42.00521 34.71819 11020 ft 320 kts 265°
2026-04-24 13:53 42.00371 34.68802 11703 ft 325 kts 266°
2026-04-24 13:53 42.00219 34.65759 12526 ft 327 kts 266°
2026-04-24 13:54 42.00067 34.62694 13349 ft 331 kts 266°
2026-04-24 13:54 41.99911 34.59589 14119 ft 335 kts 266°
2026-04-24 13:54 41.99754 34.56453 14859 ft 338 kts 266°
2026-04-24 13:54 41.99594 34.53286 15633 ft 341 kts 267°
2026-04-24 13:55 41.99431 34.50092 16405 ft 344 kts 267°
2026-04-24 13:55 41.99267 34.46869 17143 ft 348 kts 267°
2026-04-24 13:55 41.99099 34.43600 17880 ft 352 kts 267°
2026-04-24 13:55 41.98929 34.40303 18566 ft 356 kts 268°
2026-04-24 13:56 41.98755 34.36972 19201 ft 359 kts 267°
2026-04-24 13:56 41.98580 34.33614 19810 ft 362 kts 267°
2026-04-24 13:56 41.98401 34.30218 20425 ft 366 kts 267°
2026-04-24 13:56 41.98220 34.26794 21038 ft 369 kts 267°
2026-04-24 13:57 41.98036 34.23334 21635 ft 373 kts 267°
2026-04-24 13:57 41.97849 34.19845 22217 ft 376 kts 267°
2026-04-24 13:57 41.97659 34.16325 22779 ft 380 kts 267°
2026-04-24 13:57 41.97467 34.12767 23351 ft 383 kts 267°
2026-04-24 13:58 41.97272 34.09182 23871 ft 386 kts 267°
2026-04-24 13:58 41.97074 34.05570 24343 ft 389 kts 267°
2026-04-24 13:58 41.96874 34.01940 24826 ft 391 kts 267°
2026-04-24 13:58 41.96671 33.98278 25313 ft 394 kts 267°
2026-04-24 13:59 41.96466 33.94597 25744 ft 397 kts 267°
2026-04-24 13:59 41.96260 33.90929 26168 ft 400 kts 267°
2026-04-24 13:59 41.96050 33.87194 26627 ft 402 kts 267°
2026-04-24 13:59 41.95834 33.83381 27064 ft 405 kts 267°
2026-04-24 14:00 41.95618 33.79595 27465 ft 408 kts 268°
2026-04-24 14:00 41.95403 33.75850 28001 ft 407 kts 268°
2026-04-24 14:00 41.95185 33.72068 28598 ft 405 kts 268°
2026-04-24 14:00 41.94806 33.68327 29172 ft 405 kts 261°
2026-04-24 14:01 41.94234 33.64618 29707 ft 405 kts 261°
2026-04-24 14:01 41.93641 33.60916 30193 ft 405 kts 261°
2026-04-24 14:01 41.93047 33.57228 30648 ft 404 kts 261°
2026-04-24 14:01 41.92457 33.53540 31082 ft 404 kts 261°
2026-04-24 14:02 41.91868 33.49835 31320 ft 407 kts 261°
2026-04-24 14:02 41.91283 33.46126 31568 ft 405 kts 261°
2026-04-24 14:02 41.90702 33.42447 31816 ft 402 kts 261°
2026-04-24 14:02 41.90124 33.38774 31986 ft 404 kts 261°
2026-04-24 14:03 41.88954 33.31361 31984 ft 405 kts 260°
2026-04-24 14:03 41.87785 33.24000 31983 ft 402 kts 261°
2026-04-24 14:04 41.86616 33.16663 31987 ft 402 kts 260°
2026-04-24 14:04 41.85442 33.09322 31989 ft 403 kts 260°
2026-04-24 14:05 41.84255 33.01950 31992 ft 405 kts 260°
2026-04-24 14:05 41.83054 32.94574 31993 ft 406 kts 260°
2026-04-24 14:06 41.81843 32.87174 32000 ft 407 kts 260°
2026-04-24 14:06 41.80626 32.79754 31989 ft 408 kts 260°
2026-04-24 14:07 41.79401 32.72314 32000 ft 409 kts 260°
2026-04-24 14:07 41.78168 32.64862 31996 ft 410 kts 260°
2026-04-24 14:08 41.76927 32.57392 31988 ft 411 kts 260°
2026-04-24 14:08 41.75891 32.51179 32002 ft 412 kts 260°
2026-04-24 14:09 41.74637 32.43688 31994 ft 412 kts 260°
2026-04-24 14:09 41.73381 32.36206 32001 ft 412 kts 260°
2026-04-24 14:10 41.72115 32.28719 31992 ft 412 kts 259°
2026-04-24 14:10 41.70785 32.21249 31993 ft 413 kts 259°
2026-04-24 14:11 41.69429 32.13789 31998 ft 413 kts 259°
2026-04-24 14:12 41.67398 32.02595 31997 ft 413 kts 259°
2026-04-24 14:12 41.66038 31.95118 31995 ft 414 kts 259°
2026-04-24 14:13 41.64673 31.87631 31998 ft 415 kts 259°
2026-04-24 14:13 41.63290 31.80082 31996 ft 416 kts 259°
2026-04-24 14:14 41.61916 31.72611 31997 ft 417 kts 259°
2026-04-24 14:14 41.59827 31.61307 31997 ft 418 kts 259°
2026-04-24 14:15 41.59127 31.57531 31846 ft 420 kts 259°
2026-04-24 14:15 41.58423 31.53747 31577 ft 418 kts 259°
2026-04-24 14:15 41.57723 31.49987 31318 ft 418 kts 259°
2026-04-24 14:15 41.57020 31.46217 31079 ft 419 kts 259°
2026-04-24 14:16 41.56313 31.42432 30839 ft 421 kts 259°
2026-04-24 14:16 41.55480 31.38675 30565 ft 426 kts 249°
2026-04-24 14:16 41.53868 31.35327 30325 ft 433 kts 232°
2026-04-24 14:17 41.48895 31.30836 29265 ft 434 kts 208°
2026-04-24 14:17 41.46181 31.29131 28759 ft 429 kts 207°
2026-04-24 14:17 41.40824 31.25840 27788 ft 419 kts 208°
2026-04-24 14:18 41.38197 31.24205 27295 ft 415 kts 208°
2026-04-24 14:18 41.35601 31.22571 26817 ft 411 kts 208°
2026-04-24 14:18 41.33035 31.20944 26351 ft 407 kts 208°
2026-04-24 14:18 41.30494 31.19328 25873 ft 403 kts 208°
2026-04-24 14:19 41.27972 31.17723 25407 ft 400 kts 208°
2026-04-24 14:19 41.25468 31.16130 24948 ft 397 kts 208°
2026-04-24 14:19 41.22985 31.14552 24489 ft 395 kts 208°
2026-04-24 14:19 41.20511 31.12981 24033 ft 392 kts 208°
2026-04-24 14:20 41.18056 31.11424 23531 ft 391 kts 208°
2026-04-24 14:20 41.15602 31.09869 22995 ft 389 kts 208°
2026-04-24 14:20 41.13171 31.08330 22512 ft 386 kts 208°
2026-04-24 14:20 41.10763 31.06807 22061 ft 382 kts 208°
2026-04-24 14:21 41.08368 31.05294 21607 ft 379 kts 208°
2026-04-24 14:21 41.05997 31.03797 21171 ft 376 kts 208°
2026-04-24 14:21 41.03810 31.02004 20824 ft 364 kts 226°
2026-04-24 14:21 41.02283 30.99452 20699 ft 347 kts 245°
2026-04-24 14:22 41.01486 30.96500 20315 ft 339 kts 262°
2026-04-24 14:22 41.01332 30.93424 19924 ft 333 kts 277°
2026-04-24 14:22 41.02395 30.87537 19362 ft 329 kts 288°
2026-04-24 14:23 41.03053 30.84592 19131 ft 337 kts 288°
2026-04-24 14:23 41.03706 30.81590 18890 ft 340 kts 287°
2026-04-24 14:23 41.04342 30.78578 18628 ft 338 kts 287°
2026-04-24 14:23 41.04963 30.75588 18270 ft 335 kts 287°
2026-04-24 14:24 41.05387 30.72572 17814 ft 335 kts 273°
2026-04-24 14:24 41.05093 30.69526 17423 ft 335 kts 255°
2026-04-24 14:24 41.04231 30.66664 17044 ft 333 kts 249°
2026-04-24 14:24 41.03274 30.63881 16642 ft 332 kts 248°
2026-04-24 14:25 41.02309 30.61109 16227 ft 330 kts 248°
2026-04-24 14:25 41.01379 30.58387 15838 ft 328 kts 248°
2026-04-24 14:25 41.00453 30.55638 15437 ft 326 kts 248°
2026-04-24 14:25 40.99539 30.52908 15054 ft 324 kts 248°
2026-04-24 14:26 40.98519 30.50217 14648 ft 324 kts 236°
2026-04-24 14:26 40.96945 30.48150 14281 ft 326 kts 216°
2026-04-24 14:26 40.94907 30.46819 13873 ft 327 kts 204°
2026-04-24 14:26 40.92792 30.45697 13410 ft 327 kts 203°
2026-04-24 14:27 40.90688 30.44590 12991 ft 325 kts 204°
2026-04-24 14:27 40.88605 30.43473 12619 ft 321 kts 204°
2026-04-24 14:27 40.86554 30.42360 12294 ft 317 kts 204°
2026-04-24 14:27 40.84545 30.41206 11934 ft 313 kts 212°
2026-04-24 14:28 40.82941 30.39333 11580 ft 307 kts 236°
2026-04-24 14:28 40.82046 30.36815 11203 ft 303 kts 256°
2026-04-24 14:28 40.81870 30.34068 10808 ft 301 kts 276°
2026-04-24 14:28 40.82199 30.31365 10604 ft 294 kts 280°
2026-04-24 14:29 40.82565 30.28750 10456 ft 286 kts 280°
2026-04-24 14:29 40.82913 30.26207 10330 ft 277 kts 280°
2026-04-24 14:29 40.83493 30.23804 10135 ft 274 kts 293°
2026-04-24 14:29 40.84335 30.21540 9931 ft 275 kts 296°
2026-04-24 14:30 40.84934 30.20035 9796 ft 274 kts 297°
2026-04-24 14:30 40.86114 30.17081 9514 ft 274 kts 297°
2026-04-24 14:30 40.86993 30.14846 9300 ft 275 kts 296°
2026-04-24 14:30 40.87868 30.12590 9096 ft 277 kts 296°
2026-04-24 14:31 40.88740 30.10314 8872 ft 277 kts 296°
2026-04-24 14:31 40.89610 30.08025 8579 ft 280 kts 296°
2026-04-24 14:31 40.90482 30.05720 8273 ft 280 kts 296°
2026-04-24 14:31 40.91348 30.03422 7955 ft 278 kts 296°
2026-04-24 14:32 40.92205 30.01140 7655 ft 277 kts 296°
2026-04-24 14:32 40.93058 29.98866 7350 ft 276 kts 296°
2026-04-24 14:32 40.93906 29.96597 7053 ft 274 kts 296°
2026-04-24 14:32 40.94749 29.94338 6751 ft 274 kts 296°
2026-04-24 14:33 40.95591 29.92087 6454 ft 273 kts 296°
2026-04-24 14:33 40.96428 29.89841 6142 ft 272 kts 296°
2026-04-24 14:33 40.97262 29.87605 5857 ft 270 kts 296°
2026-04-24 14:33 40.98090 29.85385 5584 ft 268 kts 296°
2026-04-24 14:34 40.98908 29.83185 5323 ft 265 kts 296°
2026-04-24 14:34 40.99716 29.81009 5092 ft 261 kts 296°
2026-04-24 14:34 41.00503 29.78892 5007 ft 252 kts 296°
2026-04-24 14:34 41.01262 29.76850 4987 ft 244 kts 297°
2026-04-24 14:35 41.02014 29.74828 4989 ft 247 kts 296°
2026-04-24 14:35 41.02766 29.72795 4990 ft 244 kts 296°
2026-04-24 14:35 41.03440 29.70744 4994 ft 243 kts 283°
2026-04-24 14:35 41.03398 29.68534 4990 ft 242 kts 254°
2026-04-24 14:36 41.02703 29.66524 5003 ft 240 kts 240°
2026-04-24 14:36 41.01834 29.64637 4976 ft 239 kts 239°
2026-04-24 14:36 41.00979 29.62812 4972 ft 227 kts 239°
2026-04-24 14:36 41.00180 29.61085 4965 ft 213 kts 240°
2026-04-24 14:37 40.99429 29.59444 4702 ft 210 kts 240°
2026-04-24 14:37 40.98684 29.57802 4434 ft 207 kts 240°
2026-04-24 14:37 40.97991 29.56127 4179 ft 204 kts 245°
2026-04-24 14:37 40.97381 29.54447 3929 ft 200 kts 245°
2026-04-24 14:38 40.96803 29.52855 3818 ft 189 kts 245°
2026-04-24 14:38 40.96238 29.51321 3639 ft 182 kts 245°
2026-04-24 14:38 40.95688 29.49826 3374 ft 178 kts 245°
2026-04-24 14:38 40.95153 29.48376 3098 ft 172 kts 245°
2026-04-24 14:39 40.94629 29.46960 2839 ft 172 kts 244°
2026-04-24 14:39 40.94103 29.45536 2584 ft 174 kts 245°
2026-04-24 14:39 40.93571 29.44089 2301 ft 175 kts 244°
2026-04-24 14:39 40.93047 29.42664 2038 ft 170 kts 244°
2026-04-24 14:40 40.92542 29.41294 1799 ft 160 kts 244°
2026-04-24 14:40 40.92069 29.40013 1502 ft 151 kts 245°
2026-04-24 14:40 40.91606 29.38771 1247 ft 149 kts 245°
2026-04-24 14:40 40.91173 29.37567 1031 ft 144 kts 245°
2026-04-24 14:41 40.90743 29.36387 774 ft 143 kts 243°
2026-04-24 14:41 40.90309 29.35204 570 ft 142 kts 242°
2026-04-24 14:41 40.89879 29.34042 365 ft 139 kts 242°
2026-04-24 14:41 40.89481 29.32961 306 ft 116 kts 245°
2026-04-24 14:42 40.89272 29.32396 304 ft 87 kts 243°
2026-04-24 14:42 40.89122 29.31765 308 ft 34 kts 274°
2026-04-24 14:42 40.89175 29.31607 304 ft 8 kts 357°
2026-04-24 14:42 40.89197 29.31620 304 ft 2 kts 50°
2026-04-24 14:43 40.89207 29.31640 307 ft 4 kts 59°
2026-04-24 14:43 40.89225 29.31691 306 ft 8 kts 65°
2026-04-24 14:43 40.89260 29.31785 306 ft 16 kts 64°
2026-04-24 14:43 40.89320 29.31950 306 ft 23 kts 64°
2026-04-24 14:44 40.89390 29.32141 306 ft 23 kts 64°
2026-04-24 14:44 40.89456 29.32322 309 ft 18 kts 66°
2026-04-24 14:44 40.89510 29.32368 306 ft 7 kts 347°
2026-04-24 14:44 40.89547 29.32324 307 ft 7 kts 293°
2026-04-24 14:45 40.89566 29.32259 307 ft 8 kts 304°
2026-04-24 14:45 40.89624 29.32210 306 ft 12 kts 335°
2026-04-24 14:45 40.89725 29.32148 307 ft 20 kts 335°
2026-04-24 14:45 40.89865 29.32057 313 ft 25 kts 334°
2026-04-24 14:46 40.89971 29.31989 319 ft 13 kts 335°
2026-04-24 14:46 40.90030 29.31916 320 ft 6 kts 275°
2026-04-24 14:46 40.90013 29.31850 320 ft 11 kts 246°
2026-04-24 14:46 40.89964 29.31716 320 ft 21 kts 244°
2026-04-24 14:47 40.89917 29.31588 319 ft 25 kts 244°
2026-04-24 14:47 40.89822 29.31329 319 ft 19 kts 244°
2026-04-24 14:47 40.89778 29.31188 319 ft 14 kts 264°
2026-04-24 14:47 40.89809 29.31134 319 ft 9 kts 328°
2026-04-24 14:48 40.89880 29.31090 318 ft 16 kts 333°
2026-04-24 14:48 40.90002 29.31009 319 ft 22 kts 334°
2026-04-24 14:48 40.90133 29.30926 320 ft 14 kts 334°
2026-04-24 14:48 40.90217 29.30880 320 ft 13 kts
2026-04-24 14:49 40.90272 29.30968 320 ft 13 kts 78°
2026-04-24 14:49 40.90264 29.31001 320 ft 0 kts 126°
2026-04-24 14:49 40.90261 29.31006 320 ft 2 kts 130°
2026-04-24 14:49 40.90251 29.31015 319 ft 0 kts 151°